FENGYUN 1C DEB

Satellite information

Favourite Embed

Satellite Type and Status

DEBRISIN ORBIT

Key statistics

Satellite FENGYUN 1C DEB at a glance.

Uptime

9556

Days in orbit

Revolutions

≈ 14.2

Per day

Orbit

SSO

Sun Synchronous Orbit

Inclination

99.2

Latest

Satellite identification and parameters

Extended collection of information and parameters for FENGYUN 1C DEB.

Object identification

Identified? True

Debris? True

Object name: FENGYUN 1C DEB

International designator: 1999-025NW

Object number (NORAD): 30045

Object ID (CCSDS): 30045

Country: PEOPLES REPUBLIC OF CHINA (PRC)

Current information (Y/N): Y

RCS size: SMALL

Orbital parameters

Period: 101.412 minutes

Inclination: 99.1851 deg

SMA: 7203.667 km

Apoapsis: 894.687 km

Periapsis: 756.376 km

RAAN: 218.0764 deg

Eccentricy: 0.0096

Argument of periapsis: 200.8024 deg

Mean anomaly: 277.4696 deg

Mean motion: 14.19947693 rev/day

Mean motion (dot): 0.00002872 rev/day2

B* drag term: 0.0013116 1/REarth

Two-line elements (TLE)

Creation date: July 7, 2025, 6:34 p.m.

Reference frame: TEME

Reference center: EARTH

Epoch: July 7, 2025, 3:12 p.m. UTC

TLE line 0: 0 FENGYUN 1C DEB

TLE line 1: 1 30045U 99025NW 25188.63389973 .00002872 00000-0 13116-2 0 9992

TLE line 2: 2 30045 99.1851 218.0764 0096000 200.8024 277.4696 14.19947693944434

Live tracking on map

Real-time ground track for satellite FENGYUN 1C DEB.

In-orbit conjunctions

A list of the most updated potential collisions computed for object FENGYUN 1C DEB.

Target Orbit TCA Probability of collision Miss distance Type
COSMOS 2251 DEB LEO 2025-02-03 23:16:58 0.0001122549 84.0 (m) DEBRIS
DELTA 1 DEB SSO 2024-09-08 04:18:12 0.0003249677 64.0 (m) DEBRIS

Associated space launch

Chinese polar orbiting meteorological satellite

FENGYUN 1C DEB was lifted into orbit during the mission ‘Long March 4B | Feng Yun 1C’, on board a Long March 4B space rocket.

The launch took place on May 10, 1999, 1:33 a.m. from Launch Complex 7.

For more information about the launch, click the button.

Launch to space Long March 4B | Feng Yun 1C
Long March 4B | Feng Yun 1C

Agency: N/A

Status: Launch Successful

Launch date: May 10, 1999, 1:33 a.m. UTC

Rocket: Long March 4B

Launch pad: Launch Complex 7

Location: Taiyuan Satellite Launch Center, People's Republic of China

...

Latest news about this satellite

There are no fresh news available about this satellite. Check back as we update our databases every day.


Newsletter sign-up

Weekly statistics, charts and insights to help you stay on top of the space industry.